Preview of NWS' New Version of Forecast
This preview is not operational and should not be used for support decisions.

Regional Weather Roundup (RWR)

Issued by NWS Wilmington, NC (ILM)

                            
175 
ASUS42 KILM 212313
RWRILM
RWRILM
REGIONAL HOURLY WEATHER ROUNDUP
NATIONAL WEATHER SERVICE WILMINGTON NC
700 PM EDT THU JUN 21 2018
 
NOTE: "FAIR" INDICATES FEW OR NO CLOUDS BELOW 12,000 FEET WITH NO
SIGNIFICANT WEATHER AND/OR OBSTRUCTIONS TO VISIBILITY.
 
...............WFO WILMINGTON COUNTY WARNING AREA...............

......COASTAL NC AND SC COUNTIES......
  
CITY           SKY/WX    TMP DP  RH WIND       PRES   REMARKS
WILMINGTON     FAIR      89  77  67 S9        29.76R HX 101           
N MYRTLE BEACH FAIR      86  78  77 S8        29.77R HX  98           
MYRTLE BEACH   FAIR      93  73  52 W7        29.78R HX 102           

......INLAND NC AND SC COUNTIES.......
  
CITY           SKY/WX    TMP DP  RH WIND       PRES   REMARKS
LUMBERTON      FAIR      92  72  51 SW7       29.74S HX  99           
ELIZABETHTOWN  FAIR      91  76  61 S5        29.76R HX 102           
WHITEVILLE     FAIR      91  73  55 CALM      29.76R HX 100           
FLORENCE       FAIR      94  65  38 W12       29.77R HX  96           
DARLINGTON       N/A     92  71  50 SW12      29.77R HX  98           
KINGSTREE      FAIR      93  64  38 W7        29.78R HX  95           
HARTSVILLE     FAIR      90  66  45 SW6       29.78R HX  92           
BENNETTSVILLE  FAIR      93  64  38 W5        29.75R HX  95           
CONWAY         FAIR      90  73  58 SW3       29.77R HX  98           
GEORGETOWN     FAIR      91  70  49 W7        29.79R HX  97           
MARION         FAIR      91  70  49 SW9       29.76S HAZE    HX  97   
 
....................REST OF NORTH CAROLINA......................

.........EASTERN NC.........
  
CITY           SKY/WX    TMP DP  RH WIND       PRES   REMARKS
CAPE HATTERAS  FAIR      84  80  88 SW12G20   29.76R HX  97           
JACKSONVILLE   FAIR      92  74  55 SW7       29.75R HX 101           
MOREHEAD CITY  CLOUDY    82  80  94 W6        29.78R HX  94           
KENANSVILLE    PTSUNNY   88  77  70 CALM      29.74S HX 100           
NEW BERN       FAIR      85  79  82 SE8       29.75R HX  98           
ELIZABETH CITY FAIR      83  76  79 E8        29.74F HX  91           

.........CENTRAL NC.........
  
CITY           SKY/WX    TMP DP  RH WIND       PRES   REMARKS
RALEIGH DURHAM PTSUNNY   87  73  62 W3        29.76S HX  94           
ROCKY MOUNT    FAIR      88  72  58 W5        29.74R HX  94           
ROANOKE RAPIDS NOT AVBL                                               
FAYETTEVILLE   PTSUNNY   92  71  50 SW8       29.74R HX  98           
HOFFMAN        FAIR      92  66  42 W13       29.75R HX  95           

.........WESTERN NC.........
  
CITY           SKY/WX    TMP DP  RH WIND       PRES   REMARKS
CHARLOTTE      PTSUNNY   88  70  55 SW6       29.79R HX  93           
GREENSBORO     PTSUNNY   86  68  54 SW8       29.77S                  
HICKORY        NOT AVBL                                               
BOONE          NOT AVBL                                               
ASHEVILLE      NOT AVBL                                               

.....................REST OF SOUTH CAROLINA.....................

.........EASTERN SC.........
  
CITY           SKY/WX    TMP DP  RH WIND       PRES   REMARKS
CHARLESTON     FAIR      95  71  45 W8        29.79S HX 102           
BEAUFORT MCAS  FAIR      94  72  48 W7        29.81R HX 102           
HILTON HEAD    NOT AVBL                                               

.........CENTRAL SC.........
  
CITY           SKY/WX    TMP DP  RH WIND       PRES   REMARKS
COLUMBIA       PTSUNNY   93  69  45 W10       29.78R HX  98           
ORANGEBURG     FAIR      93  68  43 W10       29.80R HX  97           
SUMTER SHAW    FAIR      92  70  48 SW9       29.76R HX  98           

.........WESTERN SC.........
  
CITY           SKY/WX    TMP DP  RH WIND       PRES   REMARKS
GREENVILLE     NOT AVBL                                               
ROCK HILL      FAIR      87  71  58 SW7       29.80R HX  93           
ANDERSON       LGT RAIN  75  73  93 SW9       29.84S                  
CLEMSON        NOT AVBL                                               
GREENWOOD      FAIR      84  72  67 W8        29.83R                  
 

...................COASTAL AND OFFSHORE REPORTS..................

................LOCAL PIERS AND NC RESERVE................

  
STATION/POSITION TIME  SKY/WX   TEMP    WIND        PRES    VSBY
                                AIR SEA DIR/SP/G
                 (UTC)          (F)     (DEG/KT/KT) (MB)    (MI)
JOHNY MRCER PIER 2248            82 81  180/ 16/ 18 1008.0R
NC RESRV MASNBRO 2145            89     230/  5     1008.0
OCEAN CREST PIER NOT AVBL
SPRINGMAID  PIER 2242                               1011.7R


................COASTAL AND OFFSHORE BUOYS................

  
STATION/POSITION TIME  SKY/WX   TEMP    WIND        PRES    VSBY
                                AIR SEA DIR/SP/G
                 (UTC)          (F)     (DEG/KT/KT) (MB)    (MI)
DIMNDSHOAL 41025 2300            82 82  220/ 16/ 17 1008.1
CAPE LOOKOUT     2300                   210/ 14/ 17 1008.0R
ONSLOW BAY 41036 NOT AVBL
ONSLOW BAY 41064 2208            82 82  210/ 12/ 17 1007.7F
ONSLOW BAY 41159 2300               82                N/A
WVE H/P(F/S)=  4/ 6

MASNBO INL 41110 2300               80                N/A
WVE H/P(F/S)=  3/ 6

WILM HARBR 41108 2300               83                N/A
WVE H/P(F/S)=  3/ 6

27SE WRITB 41037 2208            82 82  210/ 14/ 19 1008.2F
FRYING PAN 41013 2300            82 82  210/ 16/ 17 1008.8
SUNST NRSH 41024 2208            83 82  230/ 14/ 17 1007.6F
CAPRS NRSH 41029 2208            85 85  230/ 14/ 17 1007.9F
EDISTO     41004 2250                   210/ 14/ 17 1009.3R
WVE H/P(F/S)=  2/ 4



..........OFFSHORE BUOYS BEYOND 100 NM OFFSHORE...........
.....IN A TRIANGLE---HAT TO BERMUDA TO BAHAMAS TO HAT..... 

  
STATION/POSITION TIME  SKY/WX   TEMP    WIND        PRES    VSBY
                                AIR SEA DIR/SP/G
                 (UTC)          (F)     (DEG/KT/KT) (MB)    (MI)
150E HAT   41001 NOT AVBL
W BERMUDA  41048 2300               78  240/ 12/ 14 1014.2
ATLANTIC S 41049 2250               82  180/ 14/ 17 1019.9R
WVE H/P(F/S)=  3/ 7 SWL H/P/D(F/S/D)=  2/310/ 7

E BAHAMAS  41046 2300            82 83  160/ 14/ 16 1017.4
NE BAHAMAS 41047 2300                   190/  6/  8 1015.5
120E CANVRL41010 2300            83 83  210/ 10/ 12 1012.7

END